[[{"header":{"parameterUnit":"m.s-1","parameterCategory":1,"la1":30.2991,"la2":30.254,"lo1":-89.0895,"lo2":-89.0444,"dy":0.0017,"dx":0.0017,"nx":28,"ny":28,"refTime":"2025-07-05T03:00:00:Z","depth":0,"parameterNumber":2,"parameterNumberName":"U-component_of_WINDS"},"data":[0,0,0,0,0,0,0,0,0,0,0,0,0,0,0,0,0,0,0,0,0,0,0,0,0,0,0,0,0,0,0,0,0,0,0,0,0,0,0,0,0,0,0,0,0,0,0,0,0,0,0,0,0,0,0,0,0,0,-0.7608,-0.7607,0,-0.7474,-0.7472,-0.7471,-0.7387,-0.7387,-0.7386,-0.7386,-0.7242,-0.7239,-0.7235,0,0,0,0,0,0,0,0,0,0,0,0,0,-0.7788,-0.7785,-0.7608,-0.7607,-0.7605,-0.7474,-0.7472,-0.747,-0.7387,-0.7387,-0.7386,-0.7386,-0.7243,-0.7239,-0.7235,0,0,0,0,0,0,0,0,0,0,0,0,0,-0.7687,-0.7784,-0.7609,-0.7548,-0.7541,-0.7474,-0.7472,-0.747,-0.7387,-0.7387,-0.7386,-0.7385,-0.7245,-0.724,-0.7235,-0.7216,0,0,-0.7219,-0.7217,0,0,0,0,0,0,0,0,-0.7693,-0.7681,-0.7559,-0.7552,-0.7544,-0.7447,-0.7483,-0.7384,-0.7387,-0.7446,-0.7386,-0.7385,-0.731,-0.73,-0.7276,-0.7209,-0.7203,-0.7218,-0.7215,-0.7213,-0.7212,0,0,0,0,0,0,0,-0.77,-0.7686,-0.7555,-0.7557,-0.7548,-0.7526,-0.7511,-0.7464,-0.7383,-0.744,-0.7434,-0.742,-0.7306,-0.7281,-0.7272,-0.7201,-0.7218,-0.7214,-0.7211,-0.7209,-0.711,-0.7111,0,0,0,0,0,0,-0.7718,-0.7693,-0.7559,-0.7551,-0.7619,-0.7523,-0.7506,-0.7479,-0.7383,-0.7368,-0.742,-0.7416,-0.729,-0.7278,-0.7266,-0.7237,-0.7213,-0.7208,-0.7205,-0.711,-0.7111,-0.7111,0,0,0,0,0,0,-0.7722,-0.7707,-0.7565,-0.762,-0.76,-0.7521,-0.749,-0.7476,-0.7451,-0.7368,-0.7353,-0.741,-0.7289,-0.7274,-0.7229,-0.7231,-0.7206,-0.7201,-0.7109,-0.711,-0.7111,-0.7179,0,0,0,0,0,0,-0.7727,-0.7709,-0.7702,-0.7621,-0.7598,-0.7531,-0.749,-0.7474,-0.7443,-0.7436,-0.7354,-0.734,-0.7287,-0.7237,-0.7224,-0.7223,-0.7197,-0.7109,-0.711,-0.7111,-0.7176,-0.7182,-0.7187,0,0,0,0,0,-0.7734,-0.7725,-0.7702,-0.7686,-0.7588,-0.7532,-0.7518,-0.746,-0.7443,-0.7435,-0.7382,-0.7342,-0.7233,-0.7233,-0.7218,-0.7216,-0.7108,-0.7109,-0.711,-0.7174,-0.7181,-0.7187,0,0,0,0,0,0,-0.7807,-0.7714,-0.7687,-0.7652,-0.7601,-0.7518,-0.7505,-0.7469,-0.742,-0.7416,-0.7344,-0.7326,-0.7288,-0.7247,-0.7249,-0.7192,-0.7166,-0.7164,-0.722,-0.7226,-0.7231,-0.7241,-0.7193,0,0,0,0,0,-0.7819,-0.7783,-0.7703,-0.768,-0.7656,-0.7586,-0.7559,-0.7519,-0.7462,-0.7439,-0.7383,-0.7328,-0.7281,-0.7251,-0.7203,-0.7171,-0.715,-0.7161,-0.7167,-0.7172,-0.717,-0.7148,-0.7152,-0.7114,-0.7114,-0.7114,0,0,-0.7843,-0.7788,-0.7769,-0.7693,-0.7649,-0.7611,-0.7568,-0.753,-0.7501,-0.7432,-0.7387,-0.7344,-0.7278,-0.7239,-0.7219,-0.7204,-0.7176,-0.7173,-0.7177,-0.7173,-0.715,-0.7153,-0.7157,-0.7115,-0.7115,-0.7115,0,0,-0.7868,-0.7824,-0.7799,-0.7756,-0.769,-0.7644,-0.7638,-0.7561,-0.753,-0.7485,-0.7432,-0.7396,-0.7317,-0.7272,-0.7238,-0.7248,-0.7208,-0.7234,-0.7261,-0.7241,-0.7244,-0.7246,-0.7248,-0.7249,-0.7233,-0.7233,-0.7233,0,-0.7906,-0.7849,-0.779,-0.7756,-0.7723,-0.7663,-0.7636,-0.7596,-0.7518,-0.7496,-0.7481,-0.7381,-0.7331,-0.7281,-0.7283,-0.7259,-0.7248,-0.7242,-0.7249,-0.725,-0.7251,-0.7252,-0.7253,-0.7237,-0.7236,-0.7236,-0.7236,0,-0.7898,-0.786,-0.7848,-0.7776,-0.7742,-0.7712,-0.7646,-0.7619,-0.7582,-0.7537,-0.749,-0.7429,-0.7368,-0.7353,-0.7316,-0.7297,-0.7289,-0.7263,-0.7235,-0.7259,-0.7259,-0.7259,-0.7242,-0.724,-0.7239,-0.7238,0,0,-0.7963,-0.786,-0.7856,-0.7823,-0.7747,-0.7715,-0.7681,-0.7624,-0.7601,-0.7549,-0.7518,-0.7453,-0.7428,-0.739,-0.7347,-0.733,-0.7339,-0.7304,-0.7302,-0.7312,-0.7313,-0.7332,-0.7334,-0.7314,-0.7314,-0.7314,-0.7318,0,-0.7975,-0.7914,-0.7861,-0.7818,-0.7781,-0.7724,-0.7694,-0.7643,-0.76,-0.7561,-0.7513,-0.7468,-0.7439,-0.7415,-0.7396,-0.7343,-0.7338,-0.7342,-0.7282,-0.728,-0.7299,-0.7334,-0.7354,-0.7361,-0.7317,-0.7317,-0.7317,0,-0.7981,-0.7934,-0.7889,-0.7816,-0.7798,-0.7773,-0.7716,-0.768,-0.7621,-0.759,-0.755,-0.7505,-0.7465,-0.7444,-0.7386,-0.739,-0.7362,-0.7333,-0.7331,-0.7322,-0.7299,-0.7324,-0.7362,-0.7362,-0.7316,-0.7317,-0.7317,0,-0.8031,-0.7956,-0.7919,-0.7892,-0.7807,-0.7791,-0.7754,-0.7694,-0.7663,-0.7613,-0.7591,-0.7536,-0.7505,-0.7463,-0.7404,-0.7394,-0.7353,-0.7326,-0.7324,-0.7326,-0.7317,-0.7318,-0.735,-0.7302,-0.7302,-0.7302,-0.7302,0,-0.8049,-0.8023,-0.794,-0.7918,-0.7887,-0.7825,-0.7795,-0.7753,-0.7701,-0.7667,-0.7614,-0.7583,-0.7508,-0.7468,-0.7422,-0.7381,-0.7368,-0.734,-0.7328,-0.7344,-0.7347,-0.7324,-0.7321,-0.7303,-0.7302,-0.7302,-0.7302,0,-0.8098,-0.8043,-0.7998,-0.7923,-0.7903,-0.7883,-0.7817,-0.7792,-0.7747,-0.7705,-0.7691,-0.7619,-0.7569,-0.7507,-0.7437,-0.7405,-0.7368,-0.7351,-0.7389,-0.7382,-0.7383,-0.7383,-0.7399,-0.7397,-0.7354,-0.7354,-0.7355,0,-0.8113,-0.8092,-0.8015,-0.799,-0.7956,-0.7916,-0.7884,-0.7823,-0.7792,-0.7723,-0.7705,-0.7652,-0.7606,-0.7528,-0.7468,-0.7413,-0.7393,-0.7402,-0.7384,-0.7401,-0.7391,-0.7392,-0.7389,-0.7406,-0.7407,-0.7408,-0.7408,0,-0.8144,-0.8118,-0.8076,-0.8024,-0.7989,-0.7944,-0.7897,-0.7879,-0.7808,-0.7775,-0.7725,-0.7689,-0.7618,-0.7565,-0.7503,-0.7463,-0.7423,-0.7415,-0.7411,-0.7427,-0.7449,-0.7435,-0.74,-0.7414,-0.7414,-0.7413,-0.7413,-0.7413,-0.8175,-0.8154,-0.8096,-0.8051,-0.801,-0.7968,-0.7941,-0.7893,-0.7851,-0.7789,-0.7755,-0.7705,-0.7646,-0.7559,-0.752,-0.7479,-0.7464,-0.7459,-0.7458,-0.7457,-0.7461,-0.7458,-0.7467,-0.7467,-0.7467,-0.7467,-0.7467,0,-0.8202,-0.8163,-0.8122,-0.806,-0.8024,-0.7993,-0.7939,-0.791,-0.7868,-0.7817,-0.7774,-0.7715,-0.7663,-0.76,-0.7544,-0.7522,-0.7503,-0.7509,-0.7509,-0.75,-0.7478,-0.7487,-0.7527,-0.7527,-0.7526,-0.7526,-0.7526,-0.7526,-0.8212,-0.8174,-0.8141,-0.8082,-0.8042,-0.7995,-0.7967,-0.7927,-0.7886,-0.7824,-0.7782,-0.7742,-0.7685,-0.7624,-0.7575,-0.7557,-0.7538,-0.755,-0.7527,-0.7507,-0.7502,-0.7497,-0.7504,-0.7547,-0.7547,-0.7552,-0.7552,-0.7552]},{"header":{"parameterUnit":"m.s-1","parameterCategory":1,"la1":30.2991,"la2":30.254,"lo1":-89.0895,"lo2":-89.0444,"dy":0.0017,"dx":0.0017,"nx":28,"ny":28,"refTime":"2025-07-05T03:00:00:Z","depth":0,"parameterNumber":3,"parameterNumberName":"V-component_of_WINDS"},"data":[0,0,0,0,0,0,0,0,0,0,0,0,0,0,0,0,0,0,0,0,0,0,0,0,0,0,0,0,0,0,0,0,0,0,0,0,0,0,0,0,0,0,0,0,0,0,0,0,0,0,0,0,0,0,0,0,0,0,-0.1656,-0.1659,0,-0.188,-0.1882,-0.1885,-0.2033,-0.2034,-0.2035,-0.2036,-0.2266,-0.2271,-0.2276,0,0,0,0,0,0,0,0,0,0,0,0,0,-0.136,-0.1365,-0.1656,-0.1659,-0.1662,-0.1879,-0.1882,-0.1885,-0.2033,-0.2034,-0.2035,-0.2037,-0.2264,-0.2271,-0.2277,0,0,0,0,0,0,0,0,0,0,0,0,0,-0.1526,-0.1366,-0.1656,-0.1762,-0.1773,-0.1879,-0.1882,-0.1886,-0.2033,-0.2034,-0.2036,-0.2037,-0.2262,-0.227,-0.2278,-0.2296,0,0,-0.2301,-0.2305,0,0,0,0,0,0,0,0,-0.1517,-0.1537,-0.1743,-0.1754,-0.1768,-0.193,-0.1863,-0.2024,-0.2032,-0.1934,-0.2036,-0.2038,-0.2153,-0.217,-0.2209,-0.2306,-0.2316,-0.2302,-0.2307,-0.231,-0.2312,0,0,0,0,0,0,0,-0.1505,-0.1528,-0.1745,-0.1746,-0.1761,-0.1799,-0.1824,-0.1894,-0.2033,-0.1943,-0.1954,-0.1979,-0.216,-0.2201,-0.2215,-0.232,-0.2302,-0.2309,-0.2314,-0.2317,-0.2445,-0.2444,0,0,0,0,0,0,-0.1477,-0.1518,-0.1738,-0.1751,-0.1643,-0.1803,-0.1831,-0.1876,-0.2032,-0.2057,-0.1977,-0.1985,-0.2187,-0.2206,-0.2224,-0.2256,-0.231,-0.2317,-0.2322,-0.2446,-0.2445,-0.2443,0,0,0,0,0,0,-0.147,-0.1495,-0.1729,-0.1638,-0.167,-0.1806,-0.1856,-0.188,-0.1921,-0.2058,-0.2084,-0.1993,-0.2189,-0.2213,-0.2277,-0.2266,-0.2321,-0.2328,-0.2448,-0.2446,-0.2444,-0.2319,0,0,0,0,0,0,-0.146,-0.1491,-0.1499,-0.1637,-0.1675,-0.1777,-0.1855,-0.1883,-0.1934,-0.1946,-0.208,-0.2103,-0.2192,-0.2265,-0.2285,-0.2278,-0.2334,-0.2449,-0.2447,-0.2445,-0.2325,-0.2313,-0.2303,0,0,0,0,0,-0.1449,-0.1455,-0.1498,-0.1524,-0.1687,-0.1776,-0.1798,-0.1899,-0.1932,-0.1941,-0.203,-0.2099,-0.2264,-0.227,-0.2294,-0.2289,-0.245,-0.2448,-0.2445,-0.233,-0.2315,-0.2303,0,0,0,0,0,0,-0.1312,-0.1475,-0.1525,-0.1575,-0.166,-0.1801,-0.1815,-0.188,-0.1958,-0.1966,-0.2089,-0.2118,-0.217,-0.2236,-0.224,-0.2315,-0.2366,-0.2367,-0.227,-0.2257,-0.2247,-0.223,-0.2341,0,0,0,0,0,-0.1288,-0.1346,-0.1485,-0.1516,-0.1556,-0.1678,-0.172,-0.1791,-0.1885,-0.1922,-0.2015,-0.2103,-0.2176,-0.222,-0.2294,-0.2335,-0.2367,-0.2344,-0.2333,-0.2324,-0.2323,-0.2351,-0.2343,-0.2434,-0.2434,-0.2434,0,0,-0.1238,-0.1334,-0.1363,-0.1491,-0.1565,-0.1623,-0.1707,-0.1765,-0.181,-0.1931,-0.1997,-0.2068,-0.2175,-0.2228,-0.2256,-0.2285,-0.2306,-0.232,-0.2311,-0.2317,-0.2347,-0.2338,-0.2331,-0.2432,-0.2432,-0.2433,0,0,-0.1177,-0.1255,-0.129,-0.1363,-0.1474,-0.1555,-0.1563,-0.1694,-0.1746,-0.1814,-0.1907,-0.1962,-0.2083,-0.2156,-0.2209,-0.2176,-0.2243,-0.2197,-0.214,-0.2166,-0.2158,-0.2153,-0.2141,-0.2136,-0.2197,-0.2196,-0.2196,0,-0.1101,-0.1192,-0.1299,-0.1352,-0.1406,-0.1518,-0.1554,-0.162,-0.175,-0.1785,-0.1816,-0.1971,-0.2051,-0.2122,-0.2114,-0.2153,-0.2167,-0.2182,-0.2151,-0.2146,-0.2142,-0.2133,-0.2128,-0.219,-0.2191,-0.2191,-0.2192,0,-0.1093,-0.1154,-0.1169,-0.1291,-0.1347,-0.1391,-0.1506,-0.155,-0.1616,-0.1694,-0.1762,-0.1863,-0.1959,-0.1981,-0.2047,-0.2063,-0.2077,-0.2127,-0.218,-0.2125,-0.2119,-0.2116,-0.2181,-0.2183,-0.2185,-0.2187,0,0,-0.0951,-0.1133,-0.1136,-0.1194,-0.1325,-0.1375,-0.1425,-0.1519,-0.1554,-0.164,-0.1686,-0.1786,-0.1834,-0.1893,-0.1968,-0.199,-0.1959,-0.2039,-0.2043,-0.202,-0.1983,-0.1944,-0.1938,-0.2004,-0.2004,-0.2004,-0.1974,0,-0.091,-0.1004,-0.1103,-0.1162,-0.1221,-0.1329,-0.1373,-0.1458,-0.1533,-0.1594,-0.1677,-0.1746,-0.1804,-0.1841,-0.1868,-0.1956,-0.1953,-0.196,-0.2048,-0.2049,-0.2017,-0.1935,-0.1894,-0.1861,-0.1972,-0.1972,-0.1972,0,-0.0874,-0.0954,-0.1019,-0.1147,-0.1175,-0.1212,-0.1307,-0.1364,-0.1464,-0.1517,-0.1583,-0.1663,-0.1722,-0.1768,-0.1851,-0.1854,-0.1896,-0.1945,-0.1946,-0.1958,-0.2007,-0.1944,-0.1853,-0.1848,-0.1968,-0.1969,-0.1969,0,-0.0764,-0.0889,-0.0944,-0.099,-0.1139,-0.1163,-0.1227,-0.1328,-0.1379,-0.1462,-0.1496,-0.1585,-0.1633,-0.17,-0.1802,-0.1826,-0.1874,-0.1929,-0.192,-0.1917,-0.1925,-0.1923,-0.1839,-0.1952,-0.1952,-0.1952,-0.1952,0,-0.0707,-0.0743,-0.0897,-0.093,-0.0974,-0.1088,-0.1128,-0.1202,-0.1292,-0.1342,-0.1442,-0.1488,-0.1619,-0.1681,-0.1761,-0.1818,-0.1839,-0.1884,-0.1905,-0.1875,-0.1869,-0.1904,-0.1908,-0.1951,-0.1951,-0.1951,-0.1952,0,-0.0591,-0.0696,-0.0763,-0.0899,-0.0935,-0.096,-0.1078,-0.1115,-0.1196,-0.1259,-0.128,-0.1407,-0.1485,-0.1593,-0.1704,-0.1758,-0.1804,-0.1837,-0.1769,-0.1782,-0.1767,-0.1767,-0.1702,-0.17,-0.1813,-0.1811,-0.181,0,-0.0548,-0.0578,-0.0717,-0.0758,-0.0818,-0.0883,-0.0935,-0.1049,-0.1099,-0.1216,-0.1239,-0.1325,-0.1399,-0.1519,-0.1621,-0.1707,-0.1743,-0.1714,-0.1756,-0.1726,-0.1743,-0.1739,-0.1743,-0.1704,-0.1702,-0.17,-0.1699,0,-0.046,-0.051,-0.0581,-0.067,-0.0729,-0.0805,-0.0885,-0.0913,-0.1044,-0.1096,-0.1177,-0.1234,-0.1348,-0.1432,-0.1531,-0.1598,-0.167,-0.1685,-0.1688,-0.1658,-0.1617,-0.1639,-0.1741,-0.1686,-0.1687,-0.1688,-0.1689,-0.169,-0.038,-0.0411,-0.0514,-0.059,-0.0663,-0.0735,-0.0778,-0.0863,-0.0932,-0.1033,-0.1097,-0.1174,-0.1276,-0.1417,-0.148,-0.1543,-0.1573,-0.1576,-0.1577,-0.1576,-0.1566,-0.1607,-0.1562,-0.1563,-0.1563,-0.1564,-0.1564,0,-0.0297,-0.0369,-0.0437,-0.0546,-0.0606,-0.0669,-0.0761,-0.0807,-0.0874,-0.0962,-0.1033,-0.1126,-0.1208,-0.1317,-0.1407,-0.1436,-0.1472,-0.1456,-0.1455,-0.1469,-0.1535,-0.1523,-0.1426,-0.1426,-0.1426,-0.1426,-0.1426,-0.1426,-0.0261,-0.0318,-0.0381,-0.0475,-0.0548,-0.0624,-0.0671,-0.074,-0.081,-0.0909,-0.0978,-0.1048,-0.1145,-0.1243,-0.1321,-0.1352,-0.138,-0.1354,-0.1394,-0.1452,-0.1465,-0.1477,-0.1467,-0.1359,-0.1359,-0.1324,-0.1323,-0.1323]}]]